Regional Weather Roundup
Issued by NWS Upton, NY

Current Version | Previous Version | Graphics & Text | Print | Product List | Glossary Off
Versions: 1 2 3 4 5 6 7 8 9 10 11 12 13 14 15 16 17 18 19 20 21 22 23 24 25 26 27 28 29 30 31 32 33 34 35 36 37 38 39 40 41 42 43 44 45 46 47 48 49 50
247 ASUS41 KOKX 100308 RWROKX REGIONAL WEATHER ROUNDUP NATIONAL WEATHER SERVICE NEW YORK NY 1000 PM EST SAT DEC 09 2017 NOTE: "FAIR" INDICATES FEW OR NO CLOUDS BELOW 12,000 FEET WITH NO SIGNIFICANT WEATHER AND/OR OBSTRUCTIONS TO VISIBILITY. NYZ071-072-176-178-NJZ106-104-100400- NEW YORK CITY METRO AREA CITY SKY/WX TMP DP RH WIND PRES REMARKS Central Park LGT SNOW 31 29 92 VRB6 29.75R VSB 1 WCI 25 Bronx Bot Gard N/A 32 30 93 W10 29.74R WCI 24 Bronx Lehman C N/A 32 30 93 NW7 N/A WCI 26 LaGuardia APRT LGT SNOW 33 30 88 NW12 29.73R FOG WCI 24 Queens College N/A 32 32 100 NW7 N/A WCI 26 Kennedy INTL LGT SNOW 32 30 92 N14 29.74R VSB 1 WCI 22 Breezy Point N/A N/A N/A N/A NW10G17 N/A Brooklyn Coll N/A 32 32 100 NW8 N/A WCI 25 Staten Island N/A 32 32 100 NW6 N/A WCI 26 Newark/Liberty FLURRIES 32 29 88 NW13 29.74R WCI 22 Teterboro LGT SNOW 31 29 92 N7 29.73R FOG WCI 24 $$ NYZ177-179-078>081-100400- LONG ISLAND NEW YORK CITY SKY/WX TMP DP RH WIND PRES REMARKS Jones Beach N/A 32 N/A N/A N13 N/A WCI 22 Wantagh N/A 32 32 100 NW7 N/A WCI 26 Matinecock PT N/A 32 N/A N/A NW14 N/A WCI 22 Farmingdale LGT SNOW 32 30 92 N8 29.70S FOG WCI 25 MacArthur/ISP LGT SNOW 33 32 96 N10 29.68S FOG WCI 25 Shirley LGT SNOW 33 33 100 N6 29.68S FOG WCI 28 Mt Sinai Harb N/A N/A N/A N/A N12 N/A Westhampton CLOUDY 33 31 92 N7 29.68R WCI 27 East Hampton DRIZZLE 32 32 99 N7 29.65S WCI 26 Southold N/A 34 32 93 N9 N/A WCI 26 Montauk N/A 37 34 89 N10 29.64F WCI 30 $$ NYZ052-065-067-100400- HUDSON VALLEY CITY SKY/WX TMP DP RH WIND PRES REMARKS White Plains LGT SNOW 30 28 92 NW12 29.69S VSB 1 WCI 20 Larchmont Harb N/A N/A N/A N/A NW10 N/A Croton On Huds N/A N/A N/A N/A N5 N/A Somers N/A 30 28 93 NW6 N/A WCI 24 Brewster N/A 28 28 100 N8 N/A WCI 20 Newburgh LGT SNOW 28 28 100 CALM 29.73F Montgomery LGT SNOW 28 27 96 CALM 29.72S FOG Otisville N/A 28 28 100 S3 N/A Warwick N/A 28 28 100 CALM N/A Suffern N/A 30 27 86 N3 N/A Poughkeepsie LGT SNOW 28 26 92 CALM 29.73F VSB 1 Albany LGT SNOW 28 25 88 CALM 29.75S VSB 3/4 $$ NJZ001-105-106-008-010-013-015-019>022-104-100400- NEW JERSEY CITY SKY/WX TMP DP RH WIND PRES REMARKS Newark/Liberty FLURRIES 32 29 88 NW13 29.74R WCI 22 Teterboro LGT SNOW 31 29 92 N7 29.73R FOG WCI 24 Caldwell CLOUDY 30 28 92 CALM 29.74F Somerville LGT SNOW 29 29 100 CALM 29.73S FOG Linden LGT SNOW 31 28 90 CALM 29.74S Perth Amboy N/A N/A N/A N/A NW8 N/A Sussex LGT SNOW 28 27 96 CALM 29.73S FOG Andover NOT AVBL Trenton LGT SNOW 30 28 92 NW6 29.74F FOG WCI 24 Millville LGT SNOW 30 30 100 NW9 29.78R FOG WCI 22 Atlantic City LGT SNOW 31 31 100 NW9 29.75S FOG WCI 23 Wrightstown LGT SNOW 30 28 93 W8 29.73R WCI 22 Toms River LGT SNOW 30 29 96 NW9 29.75R FOG WCI 22 Belmar LGT SNOW 30 29 96 NW9 29.74S FOG WCI 22 $$ PAZ047>061-062-071-100400- EASTERN PENNSYLVANIA CITY SKY/WX TMP DP RH WIND PRES REMARKS Philadelphia LGT SNOW 31 29 92 W5 29.78F FOG WCI 26 Allentown CLOUDY 30 26 85 SW6 29.75S WCI 24 Scranton MOCLDY 25 24 96 SW5 29.73S FOG WCI 19 $$ CTZ002-004>006-009-010-012-RIZ004-006-007-MAZ004-011-015-100400- SOUTHERN NEW ENGLAND IN CT CITY SKY/WX TMP DP RH WIND PRES REMARKS Bradley INTL LGT SNOW 30 28 92 N8 29.68F FOG WCI 22 Hartford LGT SNOW 31 29 92 N7 29.69F FOG WCI 24 Danbury LGT SNOW 30 27 88 NW5 29.70F FOG WCI 25 Wtrbury/Oxford LGT SNOW 28 27 96 NW6 29.67F FOG WCI 22 Norwalk Harbor N/A N/A N/A N/A NW10 N/A Bridgeport LGT SNOW 32 29 88 NW6 29.69F FOG WCI 26 Meriden LGT SNOW 30 28 92 N6 29.68F FOG WCI 24 New Haven FLURRIES 32 29 88 N9 29.68S WCI 24 Chester LGT SNOW 30 28 93 N8 29.65S WCI 23 Groton CLOUDY 32 30 92 N10 29.64S WCI 24 Wilimantic LGT SNOW 32 29 88 N5 29.66F FOG WCI 27 IN RI CITY SKY/WX TMP DP RH WIND PRES REMARKS Providence LGT SNOW 32 31 96 N12 29.63F FOG WCI 23 Block Island LGT RAIN 35 34 96 N14G21 29.61F WCI 26 Westerly LGT SNOW 33 32 96 N9 29.63S FOG WCI 25 IN MA CITY SKY/WX TMP DP RH WIND PRES REMARKS Boston LGT SNOW 32 30 92 NW13 29.63F VSB 1 WCI 22 Worcester LGT SNOW 28 25 88 N12 29.61F FOG WCI 18 Westfield LGT SNOW 30 29 96 N6 29.68F FOG WCI 24 Provincetown LGT RAIN 39 38 96 N20G29 29.57F FOG WCI 29 Nantucket LGT RAIN 42 42 100 N22G29 29.51F FOG $$ ANZ330-335-338-340-345-350-353-355-100400- COASTAL MARINE OBSERVATIONS STATION/POSITION TIME SKY/WX TEMP WIND PRES VSBY WAVE AIR SEA DIR/SP/G HT/PER (UTC) (F) (DEG/KT/KT) (MB) (MI) (FT/S) NY HARB ENTRANCE 0150 36 52 350/ 14/ 17 1005.4 4/ 5 20 S FIRE ISLAND 0150 38 53 350/ 16/ 19 1004.8 6/ 6 GREAT SOUTH BAY 0230 33 45 350/ 8/ 10 N/A HUDSON CANYON 0250 45 56 360/ 17/ 21 1003.1 11/ 8 KINGS POINT 0230 32 47 30/ 12/ 15 1007.0 EXECUTION ROCKS 0230 33 350/ 10/ 14 N/A WESTERN LI SOUND 0219 32 340/ 12/ 16 N/A 1/ 4 CENTRAL LI SOUND NOT AVBL ROBBINS REEF 0230 31 320/ 10/ 13 1007.2 $$ >>>>>>>>>>>>>>>>>>>>>>>>>>>> KEY <<<<<<<<<<<<<<<<<<<<<<<<<<< > < > SKY/WX - Sky Condition/Present Weather < > TMP - Temperature in Fahrenheit < > DP - Dew Point in Fahrenheit < > RH - Relative Humidity in Percent < > WIND - Direction (from) and Speed in MPH < > PRES - Mean Sea Level Pressure (inches of Hg) < > WCI - Wind Chill Index < > VSB - VISIBILITY IN MILES < > HX - HEAT INDEX < > TC - TEMPERATURE IN CELSIUS < > VRB - VARIABLE WIND DIRECTION < > < >>>>>>>>>>>>>>>>>>>>>>>>>>>> KEY <<<<<<<<<<<<<<<<<<<<<<<<<<<

USA.gov is the U.S. government's official web portal to all federal, state and local government web resources and services.